period_start,C,m1,H,J0,J1,J2,J3,J4,J5,JA,JB,JC,JD,JJ,JK,JN,#
2014-11-09 00:02:31,0.03,3.32,0.00,20.58,25.25,28.37,4.78,27.56,1005.24,2038.97,2263.05,2516.98,2682.85,350.01,346.75,30.45,0000 0000 0000 0000 000000
2014-11-09 00:07:32,0.07,3.33,0.00,20.57,25.25,28.37,4.77,27.73,1005.11,2038.99,2262.69,2516.88,2682.25,349.91,346.58,30.48,0000 0000 0000 0000 000000
2014-11-09 00:12:34,0.07,3.33,0.00,20.56,25.25,28.38,4.80,27.51,1005.11,2038.99,2262.03,2516.16,2682.00,349.97,346.56,30.51,0000 0000 0000 0000 000000
2014-11-09 00:17:35,0.03,3.33,0.00,20.54,25.24,28.37,4.82,27.57,1005.04,2038.97,2261.67,2516.00,2681.86,350.30,346.96,30.54,0000 0000 0000 0000 000000
2014-11-09 00:22:36,0.05,3.33,0.00,20.53,25.23,28.39,4.83,27.59,1004.98,2038.99,2261.02,2515.99,2681.16,350.24,346.86,30.57,0000 0000 0000 0000 000000
2014-11-09 00:27:38,0.07,3.33,0.00,20.52,25.22,28.40,4.74,27.63,1004.94,2038.99,2260.65,2515.62,2680.99,349.59,346.17,30.60,0000 0000 0000 0000 000000
2014-11-09 00:32:39,0.05,3.33,0.00,20.49,25.22,28.39,4.80,27.85,1004.90,2038.99,2260.03,2515.04,2680.86,349.83,346.32,30.63,0000 0000 0000 0000 000000
2014-11-09 00:37:40,0.09,3.34,0.00,20.49,25.22,28.40,4.79,28.08,1004.77,2038.99,2259.29,2514.83,2680.11,350.08,346.78,30.66,0000 0000 0000 0000 000000
2014-11-09 00:42:41,0.06,3.34,0.00,20.48,25.21,28.40,4.78,28.00,1004.80,2038.99,2258.82,2514.08,2679.84,350.10,346.72,30.69,0000 0000 0000 0000 000000
2014-11-09 00:47:43,0.06,3.34,0.00,20.44,25.20,28.37,4.78,27.92,1004.84,2038.99,2258.07,2514.00,2679.16,350.69,347.37,30.71,0000 0000 0000 0000 000000
2014-11-09 00:52:44,0.02,3.34,0.00,20.44,25.20,28.37,4.76,27.82,1004.90,2039.00,2257.81,2513.96,2678.99,350.06,346.79,30.74,0000 0000 0000 0000 000000
2014-11-09 00:57:45,0.11,3.34,0.00,20.41,25.19,28.36,4.82,27.94,1004.91,2039.00,2257.06,2513.35,2678.57,350.24,346.90,30.77,0000 0000 0000 0000 000000
2014-11-09 01:02:46,0.04,3.35,0.00,20.40,25.17,28.34,4.78,27.91,1005.03,2039.00,2256.74,2513.03,2678.05,350.07,346.73,30.80,0000 0000 0000 0000 000000
2014-11-09 01:07:47,0.03,3.35,0.00,20.34,25.17,28.36,4.83,27.77,1005.27,2039.01,2256.08,2512.99,2677.94,349.82,346.80,30.83,0000 0000 0000 0000 000000
2014-11-09 01:12:49,0.06,3.35,0.00,20.30,25.16,28.34,4.75,27.53,1005.39,2039.01,2255.87,2512.73,2677.27,349.92,346.94,30.86,0000 0000 0000 0000 000000
2014-11-09 01:17:50,0.06,3.35,0.00,20.29,25.15,28.35,4.82,27.70,1005.40,2039.01,2255.12,2512.26,2677.01,349.78,346.78,30.89,0000 0000 0000 0000 000000
2014-11-09 01:22:51,0.01,3.35,0.00,20.29,25.14,28.33,4.83,27.69,1005.38,2039.03,2254.91,2512.03,2676.99,350.11,346.98,30.92,0000 0000 0000 0000 000000
2014-11-09 01:27:53,0.07,3.35,0.00,20.27,25.12,28.32,4.79,27.87,1005.33,2039.11,2254.12,2512.00,2676.81,350.03,347.05,30.95,0000 0000 0000 0000 000000
2014-11-09 01:32:54,0.05,3.36,0.00,20.25,25.12,28.30,4.70,27.82,1005.38,2039.14,2253.76,2511.96,2676.06,348.88,345.90,30.98,0000 0000 0000 0000 000000
2014-11-09 01:37:55,0.08,3.36,0.00,20.24,25.10,28.28,4.82,27.65,1005.39,2039.12,2253.03,2511.39,2675.99,350.45,347.37,31.01,0000 0000 0000 0000 000000
2014-11-09 01:42:57,0.10,3.36,0.00,20.19,25.09,28.25,4.76,27.67,1005.42,2039.43,2252.82,2511.04,2675.81,349.80,347.11,31.04,0000 0000 0000 0000 000000
2014-11-09 01:47:58,0.11,3.36,0.00,20.20,25.07,28.24,4.74,27.68,1005.68,2039.73,2252.08,2511.00,2675.20,349.95,346.97,31.07,0000 0000 0000 0000 000000
2014-11-09 01:52:59,0.03,3.37,0.00,20.19,25.07,28.26,4.80,27.67,1005.83,2039.90,2251.95,2510.99,2675.01,350.06,347.17,31.10,0000 0000 0000 0000 000000
2014-11-09 01:58:00,0.07,3.37,0.00,20.17,25.05,28.23,4.79,27.58,1005.87,2039.91,2251.17,2510.75,2674.91,350.25,347.57,31.12,0000 0000 0000 0000 000000
2014-11-09 02:03:01,0.07,3.37,0.00,20.18,25.04,28.23,4.84,27.62,1005.88,2039.96,2250.98,2510.11,2674.24,350.72,347.81,31.15,0000 0000 0000 0000 000000
2014-11-09 02:08:02,0.05,3.37,0.00,20.14,25.02,28.18,4.78,27.65,1005.89,2039.97,2250.25,2510.01,2674.01,349.84,347.30,31.18,0000 0000 0000 0000 000000
2014-11-09 02:13:04,0.01,3.37,0.00,20.12,25.02,28.19,4.86,27.74,1005.90,2039.97,2249.99,2510.00,2673.98,349.78,347.13,31.21,0000 0000 0000 0000 000000
2014-11-09 02:18:05,0.04,3.37,0.00,20.10,25.00,28.17,4.82,27.63,1006.01,2039.99,2249.69,2509.97,2673.73,350.10,347.51,31.24,0000 0000 0000 0000 000000
2014-11-09 02:23:06,0.07,3.37,0.00,20.09,24.99,28.17,4.83,27.54,1006.09,2039.99,2249.03,2509.68,2673.08,349.95,347.19,31.27,0000 0000 0000 0000 000000
2014-11-09 02:28:07,0.05,3.38,0.00,20.08,24.97,28.17,4.86,27.63,1006.33,2039.99,2248.73,2509.07,2673.00,350.63,347.88,31.30,0000 0000 0000 0000 000000
2014-11-09 02:33:08,0.03,3.38,0.00,20.09,24.97,28.16,4.88,27.52,1006.36,2039.99,2248.03,2509.00,2672.92,350.48,348.00,31.33,0000 0000 0000 0000 000000
2014-11-09 02:38:10,0.06,3.38,0.00,20.08,24.96,28.16,4.81,27.84,1006.38,2039.99,2247.66,2508.98,2672.15,350.11,347.54,31.36,0000 0000 0000 0000 000000
2014-11-09 02:43:11,0.02,3.38,0.00,20.07,24.95,28.11,4.79,27.57,1006.38,2039.99,2247.04,2508.92,2672.00,349.98,347.36,31.39,0000 0000 0000 0000 000000
2014-11-09 02:48:12,0.11,3.38,0.00,20.05,24.93,28.12,4.80,27.57,1006.43,2039.99,2246.73,2508.23,2671.46,350.32,347.82,31.42,0000 0000 0000 0000 000000
2014-11-09 02:53:13,0.03,3.39,0.00,20.07,24.92,28.09,4.84,27.59,1006.68,2040.01,2246.05,2507.98,2671.01,349.84,347.61,31.45,0000 0000 0000 0000 000000
2014-11-09 02:58:15,0.03,3.39,0.00,20.07,24.91,28.07,4.82,27.68,1006.84,2040.02,2245.93,2507.79,2670.97,350.38,348.23,31.48,0000 0000 0000 0000 000000
2014-11-09 03:03:16,0.10,3.39,0.00,20.07,24.90,28.07,4.77,27.63,1006.83,2040.02,2245.18,2507.14,2670.63,349.81,347.58,31.51,0000 0000 0000 0000 000000
2014-11-09 03:08:17,0.02,3.39,0.00,20.05,24.89,28.06,4.86,27.59,1006.85,2040.02,2244.98,2507.00,2670.04,350.39,348.03,31.53,0000 0000 0000 0000 000000
2014-11-09 03:13:18,0.05,3.39,0.00,20.04,24.87,28.04,4.84,27.67,1006.85,2040.06,2244.23,2507.00,2669.99,349.54,347.36,31.56,0000 0000 0000 0000 000000
2014-11-09 03:18:20,0.02,3.39,0.00,20.02,24.87,28.01,4.80,27.55,1006.85,2040.09,2243.99,2506.93,2669.82,349.83,347.82,31.59,0000 0000 0000 0000 000000
2014-11-09 03:23:21,0.12,3.39,0.00,20.02,24.85,28.01,4.78,27.59,1006.85,2040.14,2243.61,2506.42,2669.19,349.82,347.64,31.62,0000 0000 0000 0000 000000
2014-11-09 03:28:22,0.07,3.40,0.00,20.01,24.85,28.01,4.79,27.50,1006.85,2040.29,2243.01,2506.02,2669.00,350.15,348.02,31.65,0000 0000 0000 0000 000000
2014-11-09 03:33:23,0.05,3.40,0.00,20.00,24.82,27.98,4.85,27.76,1006.85,2040.44,2242.73,2505.99,2668.97,350.27,348.02,31.68,0000 0000 0000 0000 000000
2014-11-09 03:38:24,0.05,3.40,0.00,20.00,24.82,27.99,4.77,27.82,1006.88,2040.43,2242.04,2505.74,2668.26,350.00,347.89,31.71,0000 0000 0000 0000 000000
2014-11-09 03:43:25,0.12,3.40,0.00,20.01,24.81,27.97,4.81,27.57,1007.11,2040.54,2241.70,2505.10,2668.00,350.06,347.81,31.74,0000 0000 0000 0000 000000
2014-11-09 03:48:26,0.06,3.41,0.00,20.01,24.80,27.95,4.83,27.60,1007.18,2040.85,2241.07,2505.03,2667.98,349.82,347.72,31.77,0000 0000 0000 0000 000000
2014-11-09 03:53:27,0.03,3.41,0.00,20.01,24.79,27.96,4.84,27.48,1007.27,2040.93,2240.99,2505.00,2667.65,349.93,347.91,31.80,0000 0000 0000 0000 000000
2014-11-09 03:58:28,0.05,3.41,0.00,20.01,24.77,27.95,4.77,27.59,1007.31,2040.95,2240.44,2504.99,2667.07,349.44,347.46,31.83,0000 0000 0000 0000 000000
2014-11-09 04:03:30,0.02,3.41,0.00,20.00,24.77,27.93,4.84,27.75,1007.33,2040.97,2240.00,2504.89,2667.00,349.89,347.82,31.86,0000 0000 0000 0000 000000
2014-11-09 04:08:31,0.10,3.41,0.00,19.98,24.76,27.91,4.81,27.67,1007.34,2040.98,2239.59,2504.20,2666.86,350.14,347.97,31.89,0000 0000 0000 0000 000000
2014-11-09 04:13:32,0.04,3.41,0.00,19.98,24.75,27.90,4.79,27.59,1007.34,2040.98,2239.03,2504.01,2666.20,349.65,347.78,31.92,0000 0000 0000 0000 000000
2014-11-09 04:18:33,0.00,3.41,0.00,19.97,24.74,27.86,4.86,27.71,1007.40,2040.96,2238.99,2503.99,2666.00,349.97,348.07,31.94,0000 0000 0000 0000 000000
2014-11-09 04:23:34,0.05,3.41,0.00,19.95,24.72,27.87,4.85,27.64,1007.70,2040.99,2238.42,2503.92,2665.93,350.15,348.43,31.97,0000 0000 0000 0000 000000
2014-11-09 04:28:35,0.08,3.42,0.00,19.95,24.72,27.88,4.83,27.65,1007.79,2040.99,2238.00,2503.40,2665.34,349.65,347.91,32.00,0000 0000 0000 0000 000000
2014-11-09 04:33:36,0.04,3.42,0.00,19.93,24.71,27.85,4.84,27.67,1007.83,2040.99,2237.69,2503.01,2665.00,350.35,348.27,32.03,0000 0000 0000 0000 000000
2014-11-09 04:38:38,0.02,3.42,0.00,19.92,24.70,27.85,4.87,27.85,1007.83,2040.99,2237.04,2503.00,2664.98,349.94,348.31,32.06,0000 0000 0000 0000 000000
2014-11-09 04:43:39,0.02,3.42,0.00,19.90,24.70,27.87,4.87,27.80,1007.83,2040.99,2236.90,2502.97,2664.70,350.40,349.08,32.09,0000 0000 0000 0000 000000
2014-11-09 04:48:40,0.12,3.42,0.00,19.89,24.67,27.85,4.70,27.71,1007.83,2040.99,2236.11,2502.36,2664.11,349.79,348.07,32.12,0000 0000 0000 0000 000000
2014-11-09 04:53:41,0.00,3.42,0.00,19.89,24.67,27.82,4.85,27.85,1007.83,2040.99,2235.98,2502.03,2664.00,350.26,348.73,32.15,0000 0000 0000 0000 000000
2014-11-09 04:58:43,0.04,3.43,0.00,19.86,24.66,27.83,4.85,27.87,1007.82,2041.00,2235.39,2502.00,2663.90,349.97,348.33,32.18,0000 0000 0000 0000 000000
2014-11-09 05:03:44,0.04,3.43,0.00,19.86,24.65,27.84,4.82,28.04,1007.83,2041.00,2235.00,2501.98,2663.24,350.17,348.57,32.21,0000 0000 0000 0000 000000
2014-11-09 05:08:45,0.05,3.43,0.00,19.82,24.64,27.82,4.82,27.92,1008.13,2041.01,2234.64,2501.90,2663.01,350.03,348.44,32.24,0000 0000 0000 0000 000000
2014-11-09 05:13:46,0.06,3.43,0.00,19.79,24.62,27.80,4.84,27.75,1008.31,2041.03,2234.02,2501.27,2662.99,349.78,348.58,32.27,0000 0000 0000 0000 000000
2014-11-09 05:18:48,0.03,3.43,0.00,19.80,24.62,27.79,4.81,27.79,1008.30,2041.06,2233.85,2501.02,2662.90,350.11,348.53,32.30,0000 0000 0000 0000 000000
2014-11-09 05:23:49,0.06,3.43,0.00,19.78,24.60,27.77,4.79,27.86,1008.31,2041.09,2233.12,2501.00,2662.19,350.05,348.47,32.33,0000 0000 0000 0000 000000
2014-11-09 05:28:50,0.04,3.43,0.00,19.74,24.60,27.76,4.75,27.79,1008.30,2041.20,2232.97,2500.97,2662.00,349.37,348.18,32.35,0000 0000 0000 0000 000000
2014-11-09 05:33:51,0.06,3.44,0.00,19.74,24.58,27.75,4.80,27.84,1008.32,2041.12,2232.22,2500.53,2661.92,350.08,348.79,32.38,0000 0000 0000 0000 000000
2014-11-09 05:38:52,0.08,3.44,0.00,19.73,24.57,27.76,4.84,28.02,1008.34,2041.13,2231.80,2500.04,2661.22,350.54,349.00,32.41,0000 0000 0000 0000 000000
2014-11-09 05:43:53,0.10,3.44,0.00,19.70,24.55,27.75,4.85,27.88,1008.37,2041.43,2231.17,2500.00,2661.01,350.34,349.04,32.44,0000 0000 0000 0000 000000
2014-11-09 05:48:55,0.00,3.44,0.00,19.67,24.55,27.74,4.89,27.80,1008.52,2041.52,2230.97,2499.99,2660.99,350.29,348.76,32.47,0000 0000 0000 0000 000000
2014-11-09 05:53:56,0.14,3.44,0.00,19.67,24.52,27.70,4.80,27.77,1008.56,2041.72,2230.45,2499.74,2660.70,349.51,348.50,32.50,0000 0000 0000 0000 000000
2014-11-09 05:58:57,0.07,3.45,0.00,19.65,24.52,27.68,4.81,27.92,1008.48,2041.85,2230.02,2499.17,2660.08,350.06,348.94,32.53,0000 0000 0000 0000 000000
2014-11-09 06:03:58,0.02,3.45,0.00,19.65,24.50,27.69,4.81,27.80,1008.60,2041.90,2229.77,2499.01,2660.00,349.90,348.70,32.56,0000 0000 0000 0000 000000
2014-11-09 06:08:59,0.04,3.45,0.00,19.66,24.49,27.67,4.81,27.87,1008.76,2041.93,2229.04,2498.99,2659.92,349.92,348.85,32.59,0000 0000 0000 0000 000000
2014-11-09 06:14:00,0.06,3.45,0.00,19.61,24.47,27.64,4.82,27.74,1008.77,2041.96,2228.72,2498.88,2659.23,350.05,348.99,32.62,0000 0000 0000 0000 000000
2014-11-09 06:19:02,0.07,3.45,0.00,19.61,24.46,27.64,4.79,27.87,1008.74,2041.97,2228.04,2498.28,2659.01,349.88,348.89,32.65,0000 0000 0000 0000 000000
2014-11-09 06:24:03,0.02,3.46,0.00,19.61,24.45,27.60,4.78,27.92,1008.69,2041.98,2227.93,2498.04,2658.98,349.78,348.75,32.68,0000 0000 0000 0000 000000
2014-11-09 06:29:04,0.05,3.46,0.00,19.56,24.43,27.61,4.72,27.73,1008.65,2041.99,2227.16,2498.00,2658.75,349.77,348.88,32.71,0000 0000 0000 0000 000000
2014-11-09 06:34:05,0.02,3.46,0.00,19.57,24.42,27.60,4.84,27.63,1008.76,2041.99,2226.99,2497.99,2658.20,350.07,349.06,32.74,0000 0000 0000 0000 000000
2014-11-09 06:39:06,0.06,3.46,0.00,19.57,24.40,27.58,4.79,27.98,1008.80,2041.99,2226.36,2497.82,2658.02,349.98,348.90,32.77,0000 0000 0000 0000 000000
2014-11-09 06:44:08,0.04,3.46,0.00,19.56,24.39,27.60,4.85,27.90,1008.80,2042.00,2226.01,2497.30,2657.99,350.16,349.37,32.79,0000 0000 0000 0000 000000
2014-11-09 06:49:09,0.04,3.46,0.00,19.52,24.37,27.55,4.76,27.89,1008.80,2042.01,2225.79,2497.03,2657.77,349.69,348.63,32.82,0000 0000 0000 0000 000000
2014-11-09 06:54:10,0.05,3.46,0.00,19.53,24.36,27.54,4.89,27.80,1008.80,2042.02,2225.11,2497.00,2657.14,350.50,349.57,32.85,0000 0000 0000 0000 000000
2014-11-09 06:59:11,0.01,3.46,0.00,19.52,24.35,27.50,4.83,27.63,1008.80,2042.04,2224.95,2496.99,2657.00,350.01,349.08,32.88,0000 0000 0000 0000 000000
2014-11-09 07:04:12,0.06,3.47,0.00,19.51,24.34,27.49,4.89,27.78,1008.80,2042.08,2224.26,2496.90,2656.98,350.36,349.45,32.91,0000 0000 0000 0000 000000
2014-11-09 07:09:14,0.10,3.47,0.00,19.51,24.32,27.50,4.79,27.63,1008.86,2042.25,2224.00,2496.30,2656.78,349.87,349.07,32.94,0000 0000 0000 0000 000000
2014-11-09 07:14:15,0.04,3.47,0.00,19.50,24.31,27.50,4.88,27.81,1009.10,2042.24,2223.67,2496.02,2656.09,350.40,349.64,32.97,0000 0000 0000 0000 000000
2014-11-09 07:19:16,0.11,3.47,0.00,19.47,24.30,27.49,4.76,27.77,1009.00,2042.60,2223.03,2496.00,2656.00,349.60,348.66,33.00,0000 0000 0000 0000 000000
2014-11-09 07:24:18,0.04,3.48,0.00,19.48,24.28,27.45,4.83,27.77,1009.14,2042.88,2222.94,2495.99,2655.99,349.73,348.90,33.03,0000 0000 0000 0000 000000
2014-11-09 07:29:19,0.07,3.48,0.00,19.45,24.27,27.43,4.80,27.88,1009.27,2042.95,2222.33,2495.96,2655.70,349.63,348.96,33.06,0000 0000 0000 0000 000000
2014-11-09 07:34:20,0.06,3.48,0.00,19.45,24.26,27.40,4.82,27.54,1009.29,2042.98,2222.00,2495.52,2655.09,349.79,349.25,33.09,0000 0000 0000 0000 000000
2014-11-09 07:39:21,0.05,3.48,0.00,19.49,24.25,27.42,4.85,27.74,1009.29,2042.96,2221.59,2495.06,2654.98,349.67,348.75,33.12,0000 0000 0000 0000 000000
2014-11-09 07:44:22,0.02,3.48,0.00,19.52,24.23,27.43,4.88,27.63,1009.29,2042.98,2221.03,2495.00,2654.89,350.08,349.30,33.15,0000 0000 0000 0000 000000
2014-11-09 07:49:24,0.03,3.48,0.00,19.53,24.22,27.42,4.80,27.60,1009.29,2042.99,2220.98,2495.00,2654.22,349.60,348.93,33.18,0000 0000 0000 0000 000000
2014-11-09 07:54:25,0.05,3.48,0.00,19.50,24.21,27.39,4.89,27.76,1009.30,2042.99,2220.30,2494.97,2654.01,349.98,349.26,33.20,0000 0000 0000 0000 000000
2014-11-09 07:59:27,0.05,3.48,0.00,19.49,24.20,27.36,4.82,27.74,1009.29,2042.99,2219.99,2494.53,2653.98,350.23,349.62,33.23,0000 0000 0000 0000 000000
2014-11-09 08:04:28,0.08,3.49,0.00,19.48,24.20,27.35,4.80,27.62,1009.30,2042.99,2219.49,2494.03,2653.47,349.90,349.25,33.26,0000 0000 0000 0000 000000
2014-11-09 08:09:29,0.01,3.49,0.00,19.45,24.18,27.35,4.85,27.66,1009.30,2042.99,2219.00,2494.00,2653.03,350.22,349.53,33.29,0000 0000 0000 0000 000000
2014-11-09 08:14:30,0.01,3.49,0.00,19.47,24.17,27.35,4.78,27.70,1009.29,2042.99,2218.80,2493.99,2653.00,349.54,349.05,33.32,0000 0000 0000 0000 000000
2014-11-09 08:19:31,0.07,3.49,0.00,19.51,24.17,27.34,4.78,27.57,1009.30,2042.99,2218.06,2493.73,2652.78,349.61,348.99,33.35,0000 0000 0000 0000 000000
2014-11-09 08:24:33,0.06,3.49,0.00,19.55,24.16,27.30,4.77,27.63,1009.30,2043.00,2217.90,2493.12,2652.09,349.71,348.97,33.38,0000 0000 0000 0000 000000
2014-11-09 08:29:34,0.04,3.49,0.00,19.56,24.15,27.30,4.80,27.47,1009.36,2043.00,2217.11,2493.01,2652.00,349.99,349.24,33.41,0000 0000 0000 0000 000000
2014-11-09 08:34:35,0.01,3.50,0.00,19.54,24.15,27.26,4.80,27.68,1009.34,2043.00,2216.98,2493.00,2651.96,349.71,349.00,33.44,0000 0000 0000 0000 000000
2014-11-09 08:39:36,0.10,3.50,0.00,19.52,24.15,27.24,4.77,27.82,1009.57,2043.00,2216.20,2492.78,2651.34,349.48,348.95,33.47,0000 0000 0000 0000 000000
2014-11-09 08:44:38,0.03,3.50,0.00,19.52,24.14,27.25,4.84,27.67,1009.69,2043.00,2215.99,2492.22,2651.01,350.69,349.95,33.50,0000 0000 0000 0000 000000
2014-11-09 08:49:39,0.04,3.50,0.00,19.52,24.13,27.22,4.79,27.64,1009.75,2043.00,2215.54,2492.02,2650.99,349.85,349.26,33.53,0000 0000 0000 0000 000000
2014-11-09 08:54:40,0.04,3.50,0.00,19.52,24.12,27.21,4.83,27.69,1009.77,2043.01,2215.01,2492.00,2650.52,350.27,349.63,33.56,0000 0000 0000 0000 000000
2014-11-09 08:59:42,0.04,3.50,0.00,19.50,24.12,27.22,4.86,27.68,1009.78,2043.01,2214.62,2491.98,2650.02,350.22,349.77,33.59,0000 0000 0000 0000 000000
2014-11-09 09:04:43,0.06,3.50,0.00,19.51,24.12,27.18,4.83,27.56,1009.78,2043.01,2214.03,2491.62,2649.99,349.76,349.19,33.61,0000 0000 0000 0000 000000
2014-11-09 09:09:44,0.08,3.51,0.00,19.52,24.12,27.19,4.85,27.75,1009.79,2043.01,2213.70,2491.04,2649.58,350.21,349.64,33.64,0000 0000 0000 0000 000000
2014-11-09 09:14:45,0.03,3.51,0.00,19.52,24.12,27.19,4.78,27.69,1009.80,2043.03,2213.02,2491.00,2649.03,349.44,348.86,33.67,0000 0000 0000 0000 000000
2014-11-09 09:19:47,0.04,3.51,0.00,19.51,24.12,27.21,4.85,27.82,1009.86,2043.01,2212.65,2490.93,2648.98,350.13,349.59,33.70,0000 0000 0000 0000 000000
2014-11-09 09:24:48,0.09,3.51,0.00,19.53,24.12,27.22,4.82,27.82,1010.12,2043.02,2212.01,2490.26,2648.47,350.15,349.71,33.73,0000 0000 0000 0000 000000
2014-11-09 09:29:49,0.03,3.51,0.00,19.52,24.12,27.18,4.78,27.72,1010.24,2043.02,2211.78,2490.02,2648.02,349.86,349.24,33.76,0000 0000 0000 0000 000000
2014-11-09 09:34:50,0.04,3.51,0.00,19.49,24.12,27.20,4.77,27.59,1010.27,2043.04,2211.05,2490.00,2647.99,349.70,349.32,33.79,0000 0000 0000 0000 000000
2014-11-09 09:39:51,0.07,3.52,0.00,19.50,24.12,27.22,4.78,27.75,1010.27,2043.01,2210.71,2489.78,2647.38,349.52,349.40,33.82,0000 0000 0000 0000 000000
2014-11-09 09:44:52,0.06,3.52,0.00,19.49,24.11,27.22,4.79,27.72,1010.27,2043.01,2210.05,2489.18,2647.01,349.31,348.95,33.85,0000 0000 0000 0000 000000
2014-11-09 09:49:53,0.02,3.52,0.00,19.49,24.10,27.20,4.83,27.78,1010.27,2043.04,2209.84,2489.01,2646.99,350.10,349.56,33.88,0000 0000 0000 0000 000000
2014-11-09 09:54:55,0.06,3.52,0.00,19.50,24.10,27.22,4.76,27.53,1010.28,2043.02,2209.10,2489.00,2646.50,349.44,349.20,33.91,0000 0000 0000 0000 000000
2014-11-09 09:59:56,0.02,3.52,0.00,19.48,24.10,27.25,4.88,27.76,1010.29,2043.02,2208.94,2488.89,2646.02,350.01,349.68,33.94,0000 0000 0000 0000 000000
2014-11-09 10:04:57,0.09,3.52,0.00,19.49,24.10,27.23,4.82,27.73,1010.32,2043.01,2208.18,2488.19,2645.97,349.81,349.62,33.97,0000 0000 0000 0000 000000
2014-11-09 10:09:58,0.03,3.53,0.00,19.48,24.10,27.21,4.84,27.66,1010.34,2043.04,2207.99,2488.03,2645.65,350.26,349.89,34.00,0000 0000 0000 0000 000000
2014-11-09 10:14:59,0.05,3.53,0.00,19.51,24.10,27.20,4.82,27.77,1010.31,2043.03,2207.34,2488.00,2645.03,349.91,349.68,34.03,0000 0000 0000 0000 000000
2014-11-09 10:20:01,0.08,3.53,0.00,19.48,24.10,27.21,4.85,27.69,1010.30,2043.27,2207.01,2487.98,2645.00,350.59,350.34,34.05,0000 0000 0000 0000 000000
2014-11-09 10:25:02,0.01,3.53,0.00,19.46,24.09,27.22,4.82,27.69,1010.46,2043.21,2206.64,2487.76,2644.90,350.04,349.88,34.08,0000 0000 0000 0000 000000
2014-11-09 10:30:03,0.08,3.53,0.00,19.46,24.09,27.17,4.86,27.77,1010.68,2043.14,2206.01,2487.11,2644.16,350.25,350.07,34.11,0000 0000 0000 0000 000000
2014-11-09 10:35:05,0.05,3.53,0.00,19.44,24.07,27.18,4.84,27.73,1010.75,2043.19,2205.61,2487.01,2644.00,349.83,349.66,34.14,0000 0000 0000 0000 000000
2014-11-09 10:40:06,0.02,3.53,0.00,19.44,24.07,27.21,4.84,27.83,1010.76,2043.11,2205.01,2486.95,2643.83,350.06,350.02,34.17,0000 0000 0000 0000 000000
2014-11-09 10:45:07,0.07,3.54,0.00,19.44,24.07,27.21,4.84,27.82,1010.76,2043.10,2204.73,2486.57,2643.21,349.95,349.92,34.20,0000 0000 0000 0000 000000
2014-11-09 10:50:09,0.05,3.54,0.00,19.43,24.07,27.20,4.76,27.81,1010.76,2043.11,2204.03,2486.03,2643.00,350.23,350.23,34.23,0000 0000 0000 0000 000000
2014-11-09 10:55:10,0.06,3.54,0.00,19.41,24.07,27.18,4.89,27.75,1010.77,2043.36,2203.87,2486.00,2642.97,349.99,349.63,34.26,0000 0000 0000 0000 000000
2014-11-09 11:00:11,0.03,3.54,0.00,19.43,24.07,27.19,4.82,27.78,1010.79,2043.20,2203.07,2485.98,2642.42,350.23,350.08,34.29,0000 0000 0000 0000 000000
2014-11-09 11:05:13,0.05,3.54,0.00,19.44,24.06,27.21,4.87,27.84,1010.93,2043.21,2202.90,2485.66,2642.03,350.10,350.05,34.32,0000 0000 0000 0000 000000
2014-11-09 11:10:14,0.07,3.55,0.00,19.41,24.05,27.21,4.83,27.74,1011.04,2043.17,2202.08,2485.06,2641.97,349.79,349.90,34.35,0000 0000 0000 0000 000000
2014-11-09 11:15:15,0.03,3.55,0.00,19.43,24.05,27.20,4.84,27.77,1011.05,2043.16,2201.95,2485.00,2641.51,349.66,349.50,34.38,0000 0000 0000 0000 000000
2014-11-09 11:20:17,0.09,3.55,0.00,19.42,24.05,27.18,4.83,27.66,1011.08,2043.24,2201.17,2484.97,2641.02,349.72,349.87,34.41,0000 0000 0000 0000 000000
2014-11-09 11:25:18,0.02,3.55,0.00,19.42,24.05,27.17,4.86,27.69,1011.19,2043.17,2200.89,2484.53,2640.96,350.22,350.31,34.44,0000 0000 0000 0000 000000
2014-11-09 11:30:19,0.09,3.55,0.00,19.44,24.04,27.17,4.87,27.67,1011.24,2043.12,2200.09,2484.03,2640.35,350.05,350.12,34.46,0000 0000 0000 0000 000000
2014-11-09 11:35:21,0.02,3.55,0.00,19.45,24.04,27.17,4.91,27.75,1011.24,2043.22,2199.89,2484.00,2640.02,350.41,350.29,34.49,0000 0000 0000 0000 000000
2014-11-09 11:40:22,0.03,3.55,0.00,19.44,24.02,27.13,4.82,27.72,1011.27,2043.05,2199.07,2483.79,2639.91,349.73,349.77,34.52,0000 0000 0000 0000 000000
2014-11-09 11:45:23,0.07,3.56,0.00,19.44,24.02,27.10,4.84,27.64,1011.53,2043.11,2198.94,2483.24,2639.36,350.32,350.30,34.55,0000 0000 0000 0000 000000
2014-11-09 11:50:24,0.06,3.56,0.00,19.46,24.02,27.14,4.86,27.70,1011.62,2043.12,2198.24,2483.01,2639.02,350.07,350.21,34.58,0000 0000 0000 0000 000000
2014-11-09 11:55:26,0.01,3.56,0.00,19.50,24.02,27.09,4.78,27.72,1011.68,2043.24,2197.99,2483.00,2638.99,349.49,349.68,34.61,0000 0000 0000 0000 000000
2014-11-09 12:00:27,0.14,3.56,0.00,19.48,24.02,27.08,4.77,27.72,1011.69,2043.46,2197.58,2482.96,2638.65,349.31,349.63,34.64,0000 0000 0000 0000 000000
2014-11-09 12:05:28,0.02,3.56,0.00,19.47,24.02,27.05,4.82,27.63,1011.40,2043.21,2197.01,2482.22,2638.02,350.09,350.17,34.67,0000 0000 0000 0000 000000
2014-11-09 12:10:29,0.03,3.56,0.00,19.49,24.02,27.06,4.81,27.80,1011.32,2043.13,2196.56,2482.01,2637.99,349.98,349.79,34.70,0000 0000 0000 0000 000000
2014-11-09 12:15:30,0.11,3.57,0.00,19.51,24.02,27.03,4.81,27.78,1011.31,2043.41,2196.02,2482.00,2637.62,349.70,349.78,34.73,0000 0000 0000 0000 000000
2014-11-09 12:20:32,0.02,3.57,0.00,19.51,24.02,27.02,4.81,27.73,1011.26,2043.47,2195.66,2481.95,2637.05,349.93,349.93,34.76,0000 0000 0000 0000 000000
2014-11-09 12:25:33,0.06,3.57,0.00,19.50,24.02,27.02,4.80,27.74,1011.25,2043.36,2195.02,2481.30,2636.99,350.35,350.45,34.79,0000 0000 0000 0000 000000
2014-11-09 12:30:34,0.09,3.57,0.00,19.50,24.02,27.00,4.86,27.75,1011.26,2043.50,2194.78,2481.02,2636.73,350.18,350.22,34.82,0000 0000 0000 0000 000000
2014-11-09 12:35:35,0.00,3.57,0.00,19.48,24.03,27.07,4.85,27.71,1011.50,2043.35,2194.03,2481.00,2636.04,350.30,350.32,34.85,0000 0000 0000 0000 000000
2014-11-09 12:40:36,0.06,3.57,0.00,19.48,24.03,27.04,4.82,27.87,1011.72,2043.20,2193.44,2480.59,2635.98,349.56,349.84,34.88,0000 0000 0000 0000 000000
2014-11-09 12:45:38,0.07,3.58,0.00,19.49,24.04,27.06,4.80,27.76,1011.74,2043.28,2193.02,2480.14,2635.57,349.84,350.28,34.90,0000 0000 0000 0000 000000
2014-11-09 12:50:39,0.02,3.58,0.00,19.52,24.04,27.05,4.91,27.78,1011.77,2043.14,2192.71,2480.00,2635.02,350.17,349.82,34.93,0000 0000 0000 0000 000000
2014-11-09 12:55:40,0.03,3.58,0.00,19.51,24.05,27.03,4.76,27.81,1011.87,2043.17,2192.04,2480.00,2634.98,349.19,349.32,34.96,0000 0000 0000 0000 000000
2014-11-09 13:00:41,-0.00,1.55,0.00,19.49,24.05,27.03,4.27,23.62,1012.19,2044.75,2934.69,2976.56,3204.75,309.14,309.42,0.01,0000 0000 0000 0000 000002